Regional Weather Roundup
Issued by NWS

Home | Current Version | Previous Version | Graphics & Text | Print | Product List | Glossary On
Versions: 1 2 3 4 5 6 7 8 9 10 11 12 13 14 15 16 17 18 19 20 21 22 23 24 25 26 27 28 29 30 31 32 33 34 35 36 37 38 39 40 41 42 43 44 45 46 47 48 49 50
000
ASUS43 KMPX 250310
RWRMN
WEATHER ROUNDUP FOR MINNESOTA
NATIONAL WEATHER SERVICE TWIN CITIES/CHANHASSEN MN
1000 PM CDT TUE MAY 24 2016


NOTE: "FAIR" INDICATES FEW OR NO CLOUDS BELOW 12,000 FEET WITH NO
SIGNIFICANT WEATHER AND/OR OBSTRUCTIONS TO VISIBILITY. N/A MEANS
CURRENT SKY AND/OR WEATHER CONDITIONS ARE NOT AVAILABLE.

MNZ060>063-068>070-250400-
   Twin Cities Metro

CITY           SKY/WX    TMP DP  RH WIND       PRES   REMARKS
TWIN CITIES    CLOUDY    77  51  40 SE8       29.90R
ST PAUL        CLOUDY    74  54  49 SE7       29.90R
CRYSTAL        CLOUDY    67  55  65 CALM      29.89R
BLAINE         CLOUDY    70  57  64 CALM      29.91R
EDEN PRAIRIE   CLOUDY    72  54  53 SE3       29.89R
SOUTH ST PAUL  CLOUDY    75  53  45 CALM      29.91R
LAKE ELMO      FAIR      70  57  64 E5        29.92R
$$
MNZ001>005-007-008-013>017-022>024-027-028-250400-
   Northwest Minnesota

CITY           SKY/WX    TMP DP  RH WIND       PRES   REMARKS
BEMIDJI        CLOUDY    61  46  57 CALM      29.92R
HALLOCK        CLEAR     66  50  55 E8        29.88R
ROSEAU         CLEAR     63  52  67 E7        29.92R
WARROAD        CLEAR     63  55  77 E6        29.94R
THIEF RVR FALL CLEAR     64  50  59 NE5       29.92R
CROOKSTON      CLEAR     70  54  56 E5        29.89R
FOSSTON        CLEAR     63  48  59 E3        29.92R
DETROIT LAKES  CLEAR     68  48  49 E5        29.91R
MOORHEAD       CLEAR     70  46  43 NE7       29.87R
PARK RAPIDS    PTCLDY    66  51  58 E5        29.93R
MAHNOMEN       FAIR      63  52  67 E7        29.90R
$$
MNZ006-009>011-018-025>026-250400-
   North Central Minnesota

CITY           SKY/WX    TMP DP  RH WIND       PRES   REMARKS
BAUDETTE       CLEAR     62  50  64 E13       29.94R
FLAG ISLAND    CLEAR     64  52  63 E7        29.92S
INTL FALLS     CLEAR     59  52  77 E7        29.97R
WASKISH        CLEAR     64  54  68 MISG      29.94R
BIG FORK       CLEAR     64  52  63 NE5       29.95R
LONGVILLE      PTCLDY    61  54  77 CALM      29.95R
CRANE LAKE     CLEAR     59  54  82 SE3       29.99R
ORR            CLEAR     61  52  72 CALM      29.94R
COOK           CLEAR     63  54  72 E7        29.96R
WALKER         MOCLDY    65  53  64 CALM      29.93R
$$
MNZ012-019>021-037-250400-
   Northeast Minnesota

CITY           SKY/WX    TMP DP  RH WIND       PRES   REMARKS
DULUTH         CLOUDY    55  53  93 E10       29.98R FOG
ELY            CLEAR     57  50  77 E6        30.02R
HIBBING        CLOUDY    59  54  83 SE10      29.97R
EVELETH        CLOUDY    57  52  82 E3        29.99R
DULUTH HARBOR  LGT RAIN  48  46  93 NE16      30.01R VSB 1/2
TWO HARBORS    HAZE      55  52  88 NE10      29.99R VSB 1
SILVER BAY     CLOUDY    52  52 100 NE10      30.01R FOG
GRAND MARAIS     N/A     53  51  93 NE8       30.01R
G MARAIS ARPRT PTCLDY    54  48  82 E9        30.02R
$$
MNZ029>031-032-039>041-046>048-054>057-064-250400-
   West Central Minnesota

CITY           SKY/WX    TMP DP  RH WIND       PRES   REMARKS
FERGUS FALLS   CLEAR     72  54  53 E8        29.83R
WHEATON        CLEAR     73  48  40 N3        29.85R
MORRIS         CLEAR     72  55  56 E10       29.85R
ALEXANDRIA     CLEAR     66  53  63 E8        29.90R
ELBOW LAKE     FAIR      69  56  62 E8        29.87R
WADENA         CLEAR     61  55  82 E7        29.91R
GLENWOOD       CLEAR     64  54  68 E8        29.90R
APPLETON       CLEAR     73  50  43 SE9       29.84R
ORTONVILLE     CLEAR     72  45  37 E8        29.83S
MADISON        CLEAR     70  52  52 SE8       29.84S
WILLMAR        FAIR      66  59  77 E8        29.89R
$$
MNZ033>034-036-042>043-049>051-058-059-250400-
   Central Minnesota

CITY           SKY/WX    TMP DP  RH WIND       PRES   REMARKS
ST CLOUD       CLEAR     66  56  70 E6        29.90R
SAUK CENTRE    FAIR      62  55  78 E7        29.90R
PAYNESVILLE    CLEAR     69  58  67 E7        29.90R
AITKIN         MOCLDY    64  52  63 E5        29.93R
PINE RIVER     PTCLDY    57  57 100 SE5       29.97R
BRAINERD       CLOUDY    61  56  83 E6        29.93R
STAPLES        PTCLDY    61  55  82 E5        29.92R
LONG PRAIRIE   FAIR      61  54  77 NE5       29.91R
LITTLE FALLS   PTCLDY    61  52  72 NE3       29.91R
LITCHFIELD     CLEAR     66  61  82 E5        29.89R
BUFFALO        CLEAR     68  59  74 NE5       29.91R
MAPLE LAKE     CLEAR     65  60  86 CALM      29.90S
HUTCHINSON     CLEAR     65  59  81 E7        29.89S
$$
MNZ037-044-045-052-053-250400-
   East Central Minnesota

CITY           SKY/WX    TMP DP  RH WIND       PRES   REMARKS
PRINCETON      CLEAR     66  63  88 NE5       29.92R
MORA           CLOUDY    64  52  63 N3        29.95R
CAMBRIDGE      CLEAR     66  57  72 CALM      29.90R
RUSH CITY      CLEAR     63  60  90 CALM      29.93R
MOOSE LAKE     LGT RAIN  55  54  94 NE6       29.97R
HINCKLEY       FAIR      68  55  64 NW13      29.94R
CLOQUET        FOG       54  52  94 E5        29.98R VSB 3/4
MCGREGOR       CLOUDY    61  55  82 N3        29.97R
$$
MNZ071>073-080-081-089-090-097-098-250400-
   Southwest Minnesota

CITY           SKY/WX    TMP DP  RH WIND       PRES   REMARKS
MONTEVIDEO     CLEAR     70  55  60 S10       29.87R
GRANITE FALLS  CLEAR     73  54  50 E8        29.87R
CANBY          CLEAR     73  54  49 SE7       29.86R
REDWOOD FALLS  CLEAR     72  50  45 E9        29.86R
OLIVIA         CLEAR     61  46  59 SE7       29.87R
PIPESTONE      CLEAR     73  54  49 S6        29.87S
WINDOM         CLEAR     72  54  53 CALM      29.88R
WORTHINGTON    CLEAR     71  59  65 SE9       29.89R
JACKSON        CLEAR     73  55  53 SE9       29.90R
TRACY          CLEAR     75  55  50 S7        29.87R
SLAYTON        CLEAR     69  54  59 SE7       29.89R
$$
MNZ065>067-074>077-082>085-091>093-250400-
   South Central Minnesota

CITY           SKY/WX    TMP DP  RH WIND       PRES   REMARKS
MANKATO        CLEAR     73  54  49 E8        29.90S
NEW ULM        CLEAR     72  50  46 E12       29.88S
ST JAMES       CLEAR     68  55  64 E5        29.89R
FAIRMONT       CLEAR     73  52  46 SE12      29.89S
GLENCOE        CLEAR     66  61  82 E7        29.88R
FARIBAULT      CLEAR     70  57  64 NE2       29.92R
OWATONNA       CLEAR     70  55  60 E6        29.92R
WASECA         CLEAR     68  55  64 E8        29.92R
ALBERT LEA     CLEAR     70  57  64 SE3       29.92R
$$
MNZ078>079-086>088-094>096-250400-
   Southeast Minnesota

CITY           SKY/WX    TMP DP  RH WIND       PRES   REMARKS
ROCHESTER      CLEAR     68  57  68 SE7       29.94R
RED WING       PTCLDY    64  57  77 CALM      29.91R
STANTON        MOCLDY    73  56  55 SE3       29.90S
DODGE CENTER   CLEAR     66  54  63 SE5       29.94R
WINONA         CLEAR     70  61  73 E5        29.92S
AUSTIN         CLEAR     64  61  88 CALM      29.92S
PRESTON        CLEAR     72  58  60 E5        29.94S
$$
ABBREVIATIONS USED IN REMARKS
   TC - TEMPERATURES IN CELSIUS
  WCI - WIND CHILL INDEX
   HX - HEAT INDEX
  VSB - VISIBILITY
$$




USA.gov is the U.S. government's official web portal to all federal, state and local government web resources and services.